Home   Weather   Gainesville   Past weeks

Flag for USA Past Weather in Gainesville, Florida, USA — Yesterday and Last 2 Weeks

Now
74 °F

Clear.


Feels Like: 71 °F
Forecast: 72 / 88 °F
Wind: 3 mph from Southeast

Location: Gainesville Regional Airport

Current Time: Jul 22, 2017 at 3:04:57 am

Latest Report: Jul 22, 2017 at 1:53 am


Visibility: 10 mi

Pressure: 30.05 "Hg

Humidity: 94%

Dew Point: 72 °F

Location of GainesvilleLocation

Past Weather in Gainesville — Graph

°F

Gainesville Temperature Yesterday

Maximum temperature yesterday: 91 °F (at 3:53 pm)
Minimum temperature yesterday: 69 °F (at 12:53 am)
Average temperature yesterday: 79 °F

High & Low Weather Summary for the Past Weeks

 TemperatureHumidityPressure
High93 °F (Jul 7, 2:53 pm)100% (Jul 12, 7:24 am)30.18 "Hg (Jul 12, 7:24 am)
Low69 °F (Jul 21, 12:53 am)49% (Jul 7, 2:53 pm)29.93 "Hg (Jul 16, 2:53 pm)
Average79 °F83%30.08 "Hg
* Reported Jul 6 11:53 pm — Jul 21 11:53 pm, Gainesville. Weather by CustomWeather, © 2017

Note: Actual official high and low records may vary slightly from our data, if they occured in-between our weather recording intervals... More about our weather records

Advertising

Gainesville Weather History for the Previous 24 Hours

Scroll right to see more
 ConditionsComfort  
Time TempWeatherWind HumidityBarometerVisibility
11:53 pm
Fri, Jul 21
75 °FClear.3 mph88%30.08 "Hg10 mi
10:53 pm75 °FPassing clouds.5 mph90%30.07 "Hg10 mi
9:53 pm77 °FClear.No wind82%30.06 "Hg10 mi
8:53 pm79 °FClear.5 mph74%30.05 "Hg10 mi
7:53 pm82 °FSunny.5 mph67%30.04 "Hg10 mi
6:53 pm88 °FPassing clouds.9 mph57%30.02 "Hg10 mi
5:53 pm89 °FScattered clouds.7 mph59%30.03 "Hg10 mi
4:53 pm88 °FSunny.12 mph59%30.03 "Hg10 mi
3:53 pm91 °FSunny.5 mph52%30.02 "Hg10 mi
2:53 pm90 °FPassing clouds.No wind54%30.03 "Hg10 mi
1:53 pm89 °FSunny.5 mph57%30.06 "Hg10 mi
12:53 pm88 °FSunny.5 mph61%30.09 "Hg10 mi
11:53 am87 °FSunny.3 mph61%30.10 "Hg10 mi
10:53 am83 °FSunny.No wind72%30.11 "Hg10 mi
9:53 am80 °FSunny.No wind74%30.10 "Hg10 mi
8:53 am77 °FSunny.No wind82%30.08 "Hg10 mi
7:53 am73 °FSunny.No wind90%30.07 "Hg10 mi
6:53 am69 °FSunny.No wind96%30.05 "Hg10 mi
5:53 am69 °FClear.No wind96%30.03 "Hg10 mi
4:53 am70 °FClear.No wind97%30.03 "Hg10 mi
3:53 am70 °FClear.No wind97%30.03 "Hg10 mi
Weather by CustomWeather, © 2017

See weather overviewHow to use our weather pages